Location: Gälforsberget
(66.6500°N, 22.4167°E)
Time: 07:48:59
(UTC+00:00)

Cosmos 1758 Rocket - Pass Details

Date: 11 April 2026
Orbit: 595 x 628 km, 82.5° (Epoch: 14 May)

Event Time Altitude Azimuth Distance (km) Brightness Sun altitude
Rises 23:05:26 0° 341° (NNW) 2,863 8.1 -14.5°
Reaches altitude 10° 23:07:40 10° 341° (NNW) 1,953 7.1 -14.5°
Maximum altitude 23:11:59 88° 64° (ENE) 607 3.5 -14.4°
Enters shadow 23:14:54 20° 162° (SSE) 1,387 4.8 -14.3°
